Wheeler AAF, HI

5:45 PM HST on November 17, 2017 (GMT -1000)
Wheeler Army Air Field

Weather History for PHHI - August, 2013

Change the Weather History Date:

Monday, August 26, 2013

  Actual Average Record
Temperature  
Mean Temperature 76 °F -  
Max Temperature 85 °F 81 °F 87 °F (1996)
Min Temperature 68 °F 68 °F 66 °F (2010)
Cooling Degree Days 12    
Growing Degree Days 26 (Base 50)    
Moisture  
Dew Point 64 °F    
Average Humidity 62    
Maximum Humidity 84    
Minimum Humidity 47    
Precipitation  
Precipitation 0.12 in - - ()
Sea Level Pressure  
Sea Level Pressure 30.09 in    
Wind  
Wind Speed 8 mph (ENE)    
Max Wind Speed 21 mph    
Max Gust Speed 25 mph    
Visibility 10 miles    
Events Rain    
Averages and records for this station are not official NWS values.
T = Trace of Precipitation, MM = Missing Value Source: NWS Daily Summary

Daily Weather History Graph

Daily Weather History Graph

Search for Another Location

Airport or City:

Trip Planner

Search our weather history database for the weather conditions in past years. The results will help you decide how hot, cold, wet, or windy it might be!

Date:

Astronomy

Aug. 26, 2013 Rise Set
Actual Time 6:13 AM HST 6:53 PM HST
Civil Twilight 5:51 AM HST 7:15 PM HST
Nautical Twilight 5:24 AM HST 7:42 PM HST
Astronomical Twilight 4:57 AM HST 8:09 PM HST
Moon 11:04 PM HST (8/26) 11:35 AM HST (8/26)
Length of Visible Light 13h 24m
Length of Day
12h 39m
Waning Gibbous, 64% of the Moon is Illuminated
Aug 26
Waning Gibbous
Aug 27
Last Quarter
Sep 5
New
Sep 12
First Quarter
Sep 19
Full

Hourly Weather History & Observations

Time (HST) Temp. Heat Index Dew Point Humidity Pressure Visibility Wind Dir Wind Speed Gust Speed Precip Events Conditions
12:58 AM 74.8 °F - 64.9 °F 71% 30.10 in 10.0 mi Variable 1.2 mph - N/A   Scattered Clouds
1:58 AM 73.2 °F - 64.2 °F 73% 30.09 in 10.0 mi ENE 8.1 mph - N/A   Partly Cloudy
2:58 AM 71.1 °F - 63.5 °F 77% 30.08 in 10.0 mi NW 3.5 mph - N/A   Mostly Cloudy
3:58 AM 71.1 °F - 63.9 °F 78% 30.08 in 10.0 mi WNW 3.5 mph - N/A   Overcast
4:58 AM 71.2 °F - 63.7 °F 77% 30.09 in 10.0 mi West 3.5 mph - N/A   Mostly Cloudy
5:58 AM 70.5 °F - 64.2 °F 80% 30.10 in 10.0 mi West 2.3 mph - N/A   Scattered Clouds
6:58 AM 68.5 °F - 63.7 °F 84% 30.10 in 10.0 mi WNW 4.6 mph - N/A   Scattered Clouds
7:58 AM 76.6 °F - 65.3 °F 68% 30.11 in 10.0 mi Variable 4.6 mph - N/A   Clear
8:58 AM 79.5 °F - 63.0 °F 57% 30.11 in 10.0 mi ENE 10.4 mph 19.6 mph N/A   Clear
9:58 AM 81.9 °F 82.3 °F 60.6 °F 48% 30.11 in 10.0 mi East 12.7 mph 19.6 mph N/A   Clear
10:24 AM 82.4 °F 83.4 °F 62.6 °F 51% 30.11 in 10.0 mi ESE 12.7 mph 23.0 mph N/A   Clear
10:32 AM 82.4 °F 83.4 °F 62.6 °F 51% 30.11 in 10.0 mi ENE 13.8 mph 19.6 mph N/A   Clear
10:58 AM 82.4 °F 83.5 °F 63.1 °F 52% 30.11 in 10.0 mi ENE 12.7 mph - N/A   Scattered Clouds
11:58 AM 83.5 °F 84.5 °F 63.3 °F 50% 30.10 in 10.0 mi East 17.3 mph 24.2 mph N/A   Clear
12:58 PM 85.1 °F 85.9 °F 63.0 °F 47% 30.08 in 10.0 mi East 17.3 mph 21.9 mph N/A   Clear
1:58 PM 84.2 °F 85.4 °F 63.7 °F 50% 30.07 in 10.0 mi East 16.1 mph 23.0 mph N/A   Clear
2:23 PM 84.2 °F 85.6 °F 64.4 °F 51% 30.07 in 10.0 mi ENE 16.1 mph - N/A   Clear
2:40 PM 84.2 °F 85.0 °F 62.6 °F 48% 30.07 in 10.0 mi East 16.1 mph 25.3 mph N/A Rain Light Rain
2:49 PM 84.2 °F 85.0 °F 62.6 °F 48% 30.06 in 10.0 mi East 17.3 mph 24.2 mph N/A   Clear
2:58 PM 84.6 °F 85.4 °F 63.0 °F 48% 30.06 in 10.0 mi East 16.1 mph 25.3 mph 0.11 in   Clear
3:58 PM 83.8 °F 84.7 °F 63.0 °F 49% 30.05 in 10.0 mi East 20.7 mph 23.0 mph 0.01 in   Clear
4:58 PM 81.3 °F 82.5 °F 62.6 °F 53% 30.05 in 10.0 mi East 17.3 mph 23.0 mph N/A   Clear
5:58 PM 79.5 °F - 64.9 °F 61% 30.06 in 10.0 mi East 12.7 mph - N/A   Clear
6:58 PM 76.3 °F - 64.9 °F 68% 30.08 in 10.0 mi Variable 4.6 mph - N/A   Clear
7:58 PM 75.4 °F - 65.1 °F 70% 30.10 in 10.0 mi East 5.8 mph - N/A   Clear
8:58 PM 74.8 °F - 64.2 °F 69% 30.12 in 10.0 mi East 5.8 mph - N/A   Clear
9:58 PM 74.1 °F - 64.0 °F 71% 30.13 in 10.0 mi ENE 6.9 mph - N/A   Clear
10:58 PM 74.8 °F - 64.4 °F 70% 30.13 in 10.0 mi ENE 4.6 mph - N/A   Scattered Clouds
11:58 PM 74.5 °F - 64.9 °F 72% 30.12 in 10.0 mi ENE 8.1 mph - N/A   Scattered Clouds